Glenwood, MN

11:19 AM CST on December 05, 2016 (GMT -0600)
Glenwood Municipal

Weather History for KGHW - October, 2013

Change the Weather History Date:

Friday, October 25, 2013

  Actual Average Record
Temperature  
Mean Temperature 40 °F -  
Max Temperature 60 °F 55 °F 80 °F (1989)
Min Temperature 21 °F 34 °F 18 °F (1988)
Degree Days  
Heating Degree Days 24    
Moisture  
Dew Point 32 °F    
Average Humidity 75    
Maximum Humidity 100    
Minimum Humidity 48    
Precipitation  
Precipitation 0.00 in - - ()
Sea Level Pressure  
Sea Level Pressure 30.03 in    
Wind  
Wind Speed 10 mph (SW)    
Max Wind Speed 25 mph    
Max Gust Speed 32 mph    
Visibility 10 miles    
Events      
Averages and records for this station are not official NWS values.
T = Trace of Precipitation, MM = Missing Value Source: NWS Daily Summary

Daily Weather History Graph

Daily Weather History Graph

Search for Another Location

Airport or City:

Trip Planner

Search our weather history database for the weather conditions in past years. The results will help you decide how hot, cold, wet, or windy it might be!

Date:

Astronomy

Oct. 25, 2013 Rise Set
Actual Time 7:51 AM CDT 6:18 PM CDT
Civil Twilight 7:21 AM CDT 6:48 PM CDT
Nautical Twilight 6:46 AM CDT 7:23 PM CDT
Astronomical Twilight 6:12 AM CDT 7:57 PM CDT
Moon 11:34 PM CDT (10/25) 1:37 PM CDT (10/25)
Length of Visible Light 11h 27m
Length of Day
10h 26m
Waning Gibbous, 62% of the Moon is Illuminated
Oct 25
Waning Gibbous
Oct 26
Last Quarter
Nov 3
New
Nov 9
First Quarter
Nov 17
Full

Hourly Weather History & Observations

Time (CDT) Temp. Windchill Dew Point Humidity Pressure Visibility Wind Dir Wind Speed Gust Speed Precip Events Conditions
12:13 AM 30.2 °F 23.4 °F 26.6 °F 86% 30.30 in 10.0 mi West 6.9 mph - N/A   Clear
12:33 AM 30.2 °F 22.6 °F 26.6 °F 86% 30.30 in 10.0 mi WSW 8.1 mph - N/A   Clear
12:53 AM 30.2 °F 23.4 °F 26.6 °F 86% 30.30 in 10.0 mi WSW 6.9 mph - N/A   Clear
1:14 AM 30.2 °F 23.4 °F 26.6 °F 86% 30.29 in 10.0 mi West 6.9 mph - N/A   Clear
1:33 AM 28.4 °F 22.2 °F 26.6 °F 93% 30.29 in 10.0 mi WSW 5.8 mph - N/A   Clear
1:53 AM 28.4 °F 22.2 °F 26.6 °F 93% 30.29 in 10.0 mi West 5.8 mph - N/A   Clear
2:14 AM 28.4 °F 23.3 °F 26.6 °F 93% 30.29 in 10.0 mi SW 4.6 mph - N/A   Clear
2:33 AM 26.6 °F 21.2 °F 24.8 °F 93% 30.28 in 10.0 mi SW 4.6 mph - N/A   Clear
2:53 AM 26.6 °F 20.0 °F 24.8 °F 93% 30.28 in 10.0 mi SW 5.8 mph - N/A   Clear
3:13 AM 24.8 °F 16.9 °F 24.8 °F 100% 30.28 in 10.0 mi SW 6.9 mph - N/A   Clear
3:33 AM 24.8 °F 16.9 °F 23.0 °F 93% 30.27 in 10.0 mi SSW 6.9 mph - N/A   Clear
3:53 AM 24.8 °F 19.1 °F 23.0 °F 93% 30.26 in 10.0 mi SSW 4.6 mph - N/A   Clear
4:13 AM 24.8 °F 20.5 °F 23.0 °F 93% 30.26 in 10.0 mi SSW 3.5 mph - N/A   Clear
4:34 AM 24.8 °F 17.9 °F 24.8 °F 100% 30.25 in 10.0 mi SSW 5.8 mph - N/A   Clear
4:53 AM 24.8 °F 17.9 °F 23.0 °F 93% 30.25 in 10.0 mi SSW 5.8 mph - N/A   Clear
5:13 AM 24.8 °F 19.1 °F 23.0 °F 93% 30.24 in 10.0 mi SSW 4.6 mph - N/A   Clear
5:34 AM 23.0 °F 17.0 °F 21.2 °F 93% 30.25 in 10.0 mi SSW 4.6 mph - N/A   Clear
5:53 AM 23.0 °F 17.0 °F 21.2 °F 93% 30.25 in 10.0 mi South 4.6 mph - N/A   Clear
6:13 AM 23.0 °F 15.8 °F 21.2 °F 93% 30.24 in 10.0 mi South 5.8 mph - N/A   Clear
6:33 AM 23.0 °F 18.4 °F 21.2 °F 93% 30.23 in 10.0 mi South 3.5 mph - N/A   Clear
6:53 AM 23.0 °F 18.4 °F 21.2 °F 93% 30.22 in 10.0 mi SSW 3.5 mph - N/A   Clear
7:14 AM 21.2 °F 16.4 °F 21.2 °F 100% 30.20 in 10.0 mi South 3.5 mph - N/A   Clear
7:33 AM 23.0 °F 14.7 °F 21.2 °F 93% 30.19 in 10.0 mi South 6.9 mph - N/A   Clear
7:53 AM 24.8 °F 15.3 °F 23.0 °F 93% 30.17 in 10.0 mi South 9.2 mph - N/A   Clear
8:13 AM 26.6 °F 18.2 °F 24.8 °F 93% 30.16 in 10.0 mi South 8.1 mph - N/A   Clear
8:33 AM 26.6 °F 16.2 °F 24.8 °F 93% 30.15 in 10.0 mi South 11.5 mph - N/A   Clear
8:54 AM 28.4 °F 19.1 °F 26.6 °F 93% 30.15 in 10.0 mi South 10.4 mph - N/A   Clear
9:13 AM 30.2 °F 21.3 °F 26.6 °F 86% 30.15 in 10.0 mi South 10.4 mph - N/A   Clear
9:33 AM 32.0 °F 23.6 °F 28.4 °F 87% 30.13 in 10.0 mi South 10.4 mph - N/A   Clear
9:53 AM 33.8 °F 26.4 °F 28.4 °F 81% 30.12 in 10.0 mi South 9.2 mph - N/A   Clear
10:13 AM 35.6 °F 25.5 °F 28.4 °F 75% 30.10 in 10.0 mi South 17.3 mph 20.7 mph N/A   Clear
10:33 AM 37.4 °F 28.9 °F 28.4 °F 70% 30.08 in 10.0 mi South 13.8 mph 21.9 mph N/A   Clear
10:53 AM 39.2 °F 30.5 °F 28.4 °F 65% 30.07 in 10.0 mi South 16.1 mph - N/A   Clear
11:13 AM 42.8 °F 35.4 °F 30.2 °F 61% 30.06 in 10.0 mi SSW 15.0 mph - N/A   Clear
11:33 AM 42.8 °F 36.6 °F 32.0 °F 66% 30.05 in 10.0 mi South 11.5 mph - N/A   Clear
11:53 AM 44.6 °F 38.8 °F 33.8 °F 66% 30.03 in 10.0 mi SSW 11.5 mph 16.1 mph N/A   Clear
12:13 PM 44.6 °F 38.4 °F 33.8 °F 66% 30.01 in 10.0 mi SSW 12.7 mph 17.3 mph N/A   Clear
12:34 PM 44.6 °F 37.2 °F 35.6 °F 71% 29.99 in 10.0 mi South 17.3 mph - N/A   Clear
12:53 PM 46.4 °F 40.1 °F 35.6 °F 66% 29.96 in 10.0 mi SSW 15.0 mph - N/A   Clear
1:13 PM 46.4 °F 39.8 °F 35.6 °F 66% 29.95 in 10.0 mi SSW 16.1 mph 21.9 mph N/A   Clear
1:34 PM 50.0 °F - 37.4 °F 62% 29.93 in 10.0 mi SSW 16.1 mph 20.7 mph N/A   Clear
1:53 PM 48.2 °F - 35.6 °F 62% 29.92 in 10.0 mi SSW 17.3 mph 20.7 mph N/A   Clear
2:13 PM 51.8 °F - 37.4 °F 58% 29.90 in 10.0 mi SSW 17.3 mph 25.3 mph N/A   Clear
2:33 PM 53.6 °F - 37.4 °F 54% 29.88 in 10.0 mi SSW 17.3 mph 27.6 mph N/A   Clear
2:53 PM 55.4 °F - 37.4 °F 51% 29.86 in 10.0 mi SSW 25.3 mph - N/A   Clear
3:14 PM 55.4 °F - 37.4 °F 51% 29.84 in 10.0 mi SSW 20.7 mph 26.5 mph N/A   Clear
3:33 PM 57.2 °F - 39.2 °F 51% 29.83 in 10.0 mi SW 20.7 mph 25.3 mph N/A   Clear
3:53 PM 59.0 °F - 39.2 °F 48% 29.82 in 10.0 mi SW 16.1 mph - N/A   Clear
4:13 PM 57.2 °F - 39.2 °F 51% 29.80 in 10.0 mi SW 21.9 mph 32.2 mph N/A   Clear
4:33 PM 60.8 °F - 41.0 °F 48% 29.79 in 10.0 mi SW 23.0 mph 27.6 mph N/A   Clear
4:53 PM 59.0 °F - 41.0 °F 51% 29.78 in 10.0 mi SW 24.2 mph 28.8 mph N/A   Clear
5:13 PM 57.2 °F - 42.8 °F 59% 29.79 in 10.0 mi WSW 18.4 mph 24.2 mph N/A   Clear
5:34 PM 57.2 °F - 42.8 °F 59% 29.79 in 10.0 mi WSW 17.3 mph 28.8 mph N/A   Clear
5:53 PM 55.4 °F - 42.8 °F 63% 29.79 in 10.0 mi WSW 15.0 mph - N/A   Clear
6:13 PM 55.4 °F - 42.8 °F 63% 29.80 in 10.0 mi West 13.8 mph 23.0 mph N/A   Clear
6:33 PM 53.6 °F - 42.8 °F 67% 29.79 in 10.0 mi WSW 12.7 mph - N/A   Clear
6:53 PM 53.6 °F - 42.8 °F 67% 29.79 in 10.0 mi WSW 12.7 mph - N/A   Clear
7:14 PM 51.8 °F - 42.8 °F 71% 29.79 in 10.0 mi WSW 12.7 mph - N/A   Clear
7:33 PM 51.8 °F - 42.8 °F 71% 29.81 in 10.0 mi West 10.4 mph - N/A   Clear
7:53 PM 51.8 °F - 42.8 °F 71% 29.81 in 10.0 mi West 12.7 mph 20.7 mph N/A   Clear
8:14 PM 51.8 °F - 41.0 °F 67% 29.81 in 10.0 mi West 12.7 mph - N/A   Clear
8:33 PM 51.8 °F - 41.0 °F 67% 29.81 in 10.0 mi West 12.7 mph - N/A   Clear
8:53 PM 50.0 °F - 41.0 °F 71% 29.81 in 10.0 mi West 11.5 mph - N/A   Clear
9:13 PM 48.2 °F - 39.2 °F 71% 29.81 in 10.0 mi West 13.8 mph - N/A   Clear
9:33 PM 48.2 °F - 39.2 °F 71% 29.81 in 10.0 mi West 17.3 mph 21.9 mph N/A   Clear
9:53 PM 48.2 °F - 39.2 °F 71% 29.82 in 10.0 mi West 13.8 mph - N/A   Clear
10:13 PM 48.2 °F - 37.4 °F 66% 29.83 in 10.0 mi WNW 17.3 mph 26.5 mph N/A   Clear
10:34 PM 48.2 °F - 35.6 °F 62% 29.84 in 10.0 mi WNW 17.3 mph 23.0 mph N/A   Clear
10:53 PM 46.4 °F 39.8 °F 35.6 °F 66% 29.85 in 10.0 mi WNW 16.1 mph 24.2 mph N/A   Clear
11:13 PM 46.4 °F 40.4 °F 33.8 °F 62% 29.85 in 10.0 mi NW 13.8 mph 20.7 mph N/A   Clear
11:34 PM 46.4 °F 39.8 °F 32.0 °F 57% 29.86 in 10.0 mi NW 16.1 mph 26.5 mph N/A   Clear
11:53 PM 44.6 °F 38.4 °F 32.0 °F 61% 29.87 in 10.0 mi NW 12.7 mph 21.9 mph N/A   Clear